Tracking 19247 objects as of 24-Sep-2018
HD Live streaming from Space Station
objects crossing your sky now

LEMUR 2 LUCYBRYCE

Track LEMUR 2 LUCYBRYCE now!
10-day predictions
LEMUR 2 LUCYBRYCE is classified as:


NORAD ID: 42773
Int'l Code: 2017-036J
Perigee: 496.6 km
Apogee: 518.4 km
Inclination: 97.4 °
Period: 94.6 minutes
Semi major axis: 6878 km
RCS: Unknown
Launch date: June 23, 2017
Source: United States (US)
Launch site: SRIHARIKOTA (SRI)
aabbcc
Your satellite tracking list
Your tracking list is empty




NASA's NSSDC Master Catalog

Two Line Element Set (TLE):
1 42773U 17036J   18266.85871208 +.00001871 +00000-0 +85217-4 0  9996
2 42773 097.3925 324.7520 0015894 080.6733 279.6299 15.21819556069515
Source of the keplerian elements: AFSPC